Track NAVSTAR 21 (USA 64) now! NAVSTAR 21 (USA 64) is classified as:
1 20830U 90088A 22141.09037291 -.00000065 00000-0 00000-0 0 9991 2 20830 55.5006 60.6822 0022384 267.0422 276.6792 1.87753015224860